Jerome, ID

8:13 AM MDT on April 28, 2017 (GMT -0600)
Jerome County

Weather History for KJER - November, 2012

Change the Weather History Date:

Wednesday, November 21, 2012

  Actual Average Record
Temperature  
Mean Temperature 45 °F 34 °F  
Max Temperature 58 °F 42 °F 62 °F (1924)
Min Temperature 32 °F 26 °F 0 °F (1994)
Degree Days  
Heating Degree Days 20 31  
Month to date heating degree days 457 554  
Since 1 July heating degree days 971 1253  
Cooling Degree Days 0 0  
Month to date cooling degree days 0 0  
Year to date cooling degree days 750 510  
Moisture  
Dew Point 32 °F    
Average Humidity 62    
Maximum Humidity 76    
Minimum Humidity 48    
Precipitation  
Precipitation 0.01 in 0.05 in 0.35 in (1998)
Month to date precipitation 0.38 0.74  
Year to date precipitation 7.96 8.84  
Sea Level Pressure  
Sea Level Pressure 29.98 in    
Wind  
Wind Speed 14 mph (SSW)    
Max Wind Speed 33 mph    
Max Gust Speed 43 mph    
Visibility 10 miles    
Events Rain    
T = Trace of Precipitation, MM = Missing Value Source: NWS Daily Summary

Daily Weather History Graph

Daily Weather History Graph

Search for Another Location

Airport or City:

Trip Planner

Search our weather history database for the weather conditions in past years. The results will help you decide how hot, cold, wet, or windy it might be!

Date:

Astronomy

Nov. 21, 2012 Rise Set
Actual Time 7:37 AM MST 5:09 PM MST
Civil Twilight 7:06 AM MST 5:40 PM MST
Nautical Twilight 6:32 AM MST 6:15 PM MST
Astronomical Twilight 5:58 AM MST 6:48 PM MST
Moon 1:35 PM MST (11/21) 12:52 AM MST (11/21)
Length of Visible Light 10h 33m
Length of Day
9h 32m
Waxing Gibbous, 62% of the Moon is Illuminated
Nov 21
Waxing Gibbous
Nov 28
Full
Dec 6
Last Quarter
Dec 13
New
Dec 19
First Quarter

Hourly Weather History & Observations

Time (MST) Temp. Windchill Dew Point Humidity Pressure Visibility Wind Dir Wind Speed Gust Speed Precip Events Conditions
12:53 AM 46.0 °F 43.9 °F 36.0 °F 68% 29.89 in 10.0 mi East 4.6 mph - N/A   Mostly Cloudy
1:53 AM 52.0 °F - 33.1 °F 49% 29.85 in 10.0 mi SSE 12.7 mph - N/A   Scattered Clouds
2:53 AM 52.0 °F - 33.1 °F 49% 29.84 in 10.0 mi SSE 17.3 mph 24.2 mph N/A   Mostly Cloudy
3:53 AM 51.1 °F - 33.1 °F 50% 29.85 in 10.0 mi South 11.5 mph - N/A   Partly Cloudy
4:53 AM 48.9 °F - 33.1 °F 54% 29.86 in 10.0 mi South 10.4 mph - N/A   Overcast
5:53 AM 50.0 °F - 32.0 °F 50% 29.86 in 10.0 mi South 16.1 mph - N/A   Mostly Cloudy
6:53 AM 51.1 °F - 32.0 °F 48% 29.85 in 10.0 mi South 13.8 mph - N/A   Overcast
7:53 AM 50.0 °F - 34.0 °F 54% 29.88 in 10.0 mi South 13.8 mph - 0.00 in   Overcast
8:53 AM 50.0 °F - 34.0 °F 54% 29.89 in 10.0 mi South 9.2 mph - 0.00 in   Overcast
9:53 AM 50.0 °F - 35.1 °F 57% 29.91 in 10.0 mi South 11.5 mph - 0.00 in   Overcast
10:53 AM 52.0 °F - 37.0 °F 57% 29.91 in 10.0 mi South 9.2 mph - 0.00 in   Mostly Cloudy
11:53 AM 53.1 °F - 35.1 °F 50% 29.90 in 10.0 mi SSW 19.6 mph 28.8 mph N/A   Overcast
12:53 PM 46.0 °F 37.8 °F 37.9 °F 73% 29.93 in 9.0 mi West 23.0 mph 41.4 mph 0.01 in Rain Light Rain
1:53 PM 48.9 °F - 37.0 °F 64% 29.91 in 10.0 mi West 23.0 mph 31.1 mph 0.00 in   Overcast
2:53 PM 48.9 °F - 36.0 °F 61% 29.93 in 10.0 mi West 18.4 mph 27.6 mph N/A   Mostly Cloudy
3:53 PM 44.1 °F 34.4 °F 34.0 °F 68% 29.99 in 10.0 mi WSW 27.6 mph 35.7 mph N/A   Scattered Clouds
4:53 PM 41.0 °F 32.2 °F 28.9 °F 62% 30.06 in 10.0 mi WSW 18.4 mph 25.3 mph N/A   Overcast
5:53 PM 39.0 °F 29.9 °F 28.9 °F 67% 30.09 in 10.0 mi WSW 17.3 mph 24.2 mph 0.00 in Rain Light Rain
6:53 PM 39.0 °F 31.0 °F 30.0 °F 70% 30.11 in 10.0 mi SSW 13.8 mph - 0.00 in   Overcast
7:53 PM 37.0 °F 29.3 °F 30.0 °F 76% 30.15 in 10.0 mi SSW 11.5 mph - N/A   Mostly Cloudy
8:53 PM 37.0 °F 28.9 °F 30.0 °F 76% 30.17 in 10.0 mi SW 12.7 mph - N/A   Mostly Cloudy
9:53 PM 36.0 °F 27.5 °F 26.1 °F 67% 30.21 in 10.0 mi WSW 12.7 mph - N/A   Partly Cloudy
10:53 PM 34.0 °F 26.6 °F 26.1 °F 73% 30.23 in 10.0 mi SW 9.2 mph - N/A   Clear
11:53 PM 32.0 °F 25.6 °F 25.0 °F 75% 30.25 in 10.0 mi SW 6.9 mph - N/A   Clear